START_TIME,STEP,MOV.,H8,t_acc.,H43,t_acc.,M25,t_acc.,H9,t_acc.
1979-03-06 18:00:27.130 ,1,0,0.,12.0,0.,12.0,0.,12.0,0.,12.0
1979-03-06 18:00:39.130 ,1,0,0.,12.0,0.,12.0,0.,12.0,0.,12.0
1979-03-06 18:00:51.130 ,0,0,0.,12.0,0.,12.0,0.,12.0,0.,12.0
1979-03-06 18:01:03.130 ,0,0,0.,12.0,0.,12.0,0.,12.0,0.,12.0
1979-03-06 18:01:15.130 ,0,0,0.,12.0,0.,12.0,0.,12.0,0.,12.0
1979-03-06 18:01:27.130 ,0,0,0.,12.0,0.,12.0,0.,12.0,0.,12.0
1979-03-06 18:01:39.130 ,1,0,0.,12.0,0.,12.0,0.,12.0,0.,12.0
1979-03-06 18:01:51.130 ,1,0,0.,12.0,0.,12.0,0.,12.0,0.,12.0
1979-03-06 18:02:03.130 ,2,0,0.,12.0,0.,12.0,0.,12.0,0.,12.0
1979-03-06 18:02:15.130 ,2,0,0.,12.0,0.,12.0,0.,12.0,0.,12.0
1979-03-06 18:02:27.130 ,3,0,0.,12.0,0.,12.0,0.,12.0,0.,12.0
1979-03-06 18:02:39.130 ,3,0,0.,12.0,0.,12.0,0.,12.0,0.,12.0
1979-03-06 18:02:51.130 ,4,0,0.,12.0,0.,12.0,0.,12.0,0.,12.0
1979-03-06 18:03:03.130 ,4,0,1.,12.0,0.,12.0,0.,12.0,0.,12.0
1979-03-06 18:03:15.130 ,5,0,0.,12.0,0.,12.0,0.,12.0,0.,12.0
1979-03-06 18:03:27.130 ,5,0,0.,12.0,0.,12.0,0.,12.0,0.,12.0
1979-03-06 18:03:39.130 ,6,0,0.,12.0,0.,12.0,0.,12.0,0.,12.0
1979-03-06 18:03:51.130 ,6,0,0.,12.0,0.,12.0,0.,12.0,0.,12.0
1979-03-06 18:04:03.130 ,7,0,0.,12.0,0.,12.0,0.,12.0,0.,12.0
1979-03-06 18:04:15.130 ,7,0,0.,12.0,0.,12.0,0.,12.0,0.,12.0
1979-03-06 18:04:27.130 ,7,0,0.,12.0,0.,12.0,0.,12.0,0.,12.0
1979-03-06 18:04:39.130 ,7,0,0.,12.0,0.,12.0,0.,12.0,0.,12.0
1979-03-06 18:04:51.130 ,6,0,0.,12.0,0.,12.0,0.,12.0,0.,12.0
1979-03-06 18:05:03.130 ,6,0,0.,12.0,0.,12.0,0.,12.0,0.,12.0
1979-03-06 18:05:15.130 ,5,0,0.,12.0,0.,12.0,0.,12.0,0.,12.0
1979-03-06 18:05:27.130 ,5,0,0.,12.0,0.,12.0,0.,12.0,0.,12.0
1979-03-06 18:05:39.130 ,4,0,1.,12.0,0.,12.0,0.,12.0,0.,12.0
1979-03-06 18:05:51.130 ,4,0,0.,12.0,0.,12.0,0.,12.0,0.,12.0
1979-03-06 18:06:03.130 ,3,0,0.,12.0,0.,12.0,0.,12.0,0.,12.0
1979-03-06 18:06:15.130 ,3,0,0.,12.0,0.,12.0,0.,12.0,0.,12.0
1979-03-06 18:06:27.130 ,2,0,0.,12.0,0.,12.0,0.,12.0,0.,12.0
1979-03-06 18:06:39.130 ,2,0,0.,12.0,0.,12.0,0.,12.0,0.,12.0
1979-03-06 18:06:51.130 ,1,0,0.,12.0,0.,12.0,0.,12.0,0.,12.0
1979-03-06 18:07:03.130 ,1,0,0.,12.0,0.,12.0,0.,12.0,0.,12.0
1979-03-06 18:07:15.130 ,0,0,0.,12.0,0.,12.0,0.,12.0,0.,12.0
1979-03-06 18:07:27.130 ,0,0,0.,12.0,0.,12.0,0.,12.0,0.,12.0
1979-03-06 18:07:39.130 ,0,0,0.,12.0,0.,12.0,0.,12.0,0.,12.0
1979-03-06 18:07:51.130 ,0,0,0.,12.0,0.,12.0,0.,12.0,0.,12.0
1979-03-06 18:08:03.130 ,1,0,0.,12.0,0.,12.0,0.,12.0,0.,12.0
1979-03-06 18:08:15.130 ,1,0,0.,12.0,0.,12.0,0.,12.0,0.,12.0
1979-03-06 18:08:27.130 ,2,0,0.,12.0,0.,12.0,0.,12.0,0.,12.0
1979-03-06 18:08:39.130 ,2,0,0.,12.0,0.,12.0,0.,12.0,0.,12.0
1979-03-06 18:08:51.130 ,3,0,0.,12.0,0.,12.0,0.,12.0,0.,12.0
1979-03-06 18:09:03.130 ,3,0,1.,12.0,0.,12.0,0.,12.0,0.,12.0
1979-03-06 18:09:15.130 ,4,0,0.,12.0,0.,12.0,0.,12.0,0.,12.0
1979-03-06 18:09:27.130 ,4,0,0.,12.0,0.,12.0,0.,12.0,0.,12.0
1979-03-06 18:09:39.130 ,5,0,0.,12.0,0.,12.0,0.,12.0,0.,12.0
1979-03-06 18:09:51.130 ,5,0,0.,12.0,0.,12.0,0.,12.0,0.,12.0
1979-03-06 18:10:03.130 ,6,0,0.,12.0,0.,12.0,0.,12.0,0.,12.0
1979-03-06 18:10:15.130 ,6,0,0.,12.0,0.,12.0,0.,12.0,0.,12.0
1979-03-06 18:10:27.130 ,7,0,0.,12.0,0.,12.0,0.,12.0,0.,12.0
1979-03-06 18:10:39.130 ,7,0,0.,12.0,0.,12.0,0.,12.0,0.,12.0
1979-03-06 18:10:51.130 ,7,0,0.,12.0,0.,12.0,0.,12.0,0.,12.0
1979-03-06 18:11:03.130 ,7,0,0.,12.0,0.,12.0,0.,12.0,0.,12.0
1979-03-06 18:11:15.130 ,6,0,0.,12.0,0.,12.0,0.,12.0,0.,12.0
1979-03-06 18:11:27.130 ,6,0,0.,12.0,0.,12.0,0.,12.0,0.,12.0
1979-03-06 18:11:39.130 ,5,0,0.,12.0,0.,12.0,0.,12.0,0.,12.0
1979-03-06 18:11:51.130 ,5,0,1.,12.0,0.,12.0,0.,12.0,0.,12.0
1979-03-06 18:12:03.130 ,4,0,0.,12.0,0.,12.0,0.,12.0,0.,12.0
1979-03-06 18:12:15.130 ,4,0,0.,12.0,0.,12.0,0.,12.0,0.,12.0
1979-03-06 18:12:27.130 ,3,0,0.,12.0,0.,12.0,0.,12.0,0.,12.0
1979-03-06 18:12:39.130 ,3,0,0.,12.0,0.,12.0,0.,12.0,0.,12.0
1979-03-06 18:12:51.130 ,2,0,0.,12.0,0.,12.0,0.,12.0,0.,12.0
1979-03-06 18:13:03.130 ,2,0,0.,12.0,0.,12.0,0.,12.0,0.,12.0
1979-03-06 18:13:15.130 ,1,0,0.,12.0,0.,12.0,0.,12.0,0.,12.0
1979-03-06 18:13:27.130 ,1,0,0.,12.0,0.,12.0,0.,12.0,0.,12.0
1979-03-06 18:13:39.130 ,0,0,0.,12.0,0.,12.0,0.,12.0,0.,12.0
1979-03-06 18:13:51.130 ,0,0,0.,12.0,0.,12.0,0.,12.0,0.,12.0
1979-03-06 18:14:03.130 ,0,0,0.,12.0,0.,12.0,0.,12.0,0.,12.0
1979-03-06 18:14:15.130 ,0,0,0.,12.0,0.,12.0,0.,12.0,0.,12.0
1979-03-06 18:14:27.130 ,1,0,0.,12.0,0.,12.0,0.,12.0,0.,12.0
1979-03-06 18:14:39.130 ,1,0,0.,12.0,0.,12.0,0.,12.0,0.,12.0
1979-03-06 18:14:51.130 ,2,0,0.,12.0,0.,12.0,0.,12.0,0.,12.0
1979-03-06 18:15:03.130 ,2,0,0.,12.0,0.,12.0,0.,12.0,0.,12.0
1979-03-06 18:15:15.130 ,3,0,0.,12.0,0.,12.0,0.,12.0,0.,12.0
1979-03-06 18:15:27.130 ,3,0,0.,12.0,0.,12.0,0.,12.0,0.,12.0
1979-03-06 18:15:39.130 ,4,0,0.,12.0,0.,12.0,0.,12.0,0.,12.0
1979-03-06 18:15:51.130 ,4,0,0.,12.0,0.,12.0,0.,12.0,0.,12.0
1979-03-06 18:16:03.130 ,5,0,0.,12.0,0.,12.0,0.,12.0,0.,12.0
1979-03-06 18:16:15.130 ,5,0,0.,12.0,0.,12.0,0.,12.0,0.,12.0
1979-03-06 18:16:27.130 ,6,0,1.,12.0,0.,12.0,0.,12.0,0.,12.0
1979-03-06 18:16:39.130 ,6,0,0.,12.0,0.,12.0,0.,12.0,0.,12.0
1979-03-06 18:16:51.130 ,7,0,0.,12.0,0.,12.0,0.,12.0,0.,12.0
1979-03-06 18:17:03.130 ,7,0,0.,12.0,0.,12.0,0.,12.0,0.,12.0
1979-03-06 18:17:15.130 ,7,0,0.,12.0,0.,12.0,0.,12.0,0.,12.0
1979-03-06 18:17:27.130 ,7,0,0.,12.0,0.,12.0,0.,12.0,0.,12.0
1979-03-06 18:17:39.130 ,6,0,0.,12.0,0.,12.0,0.,12.0,0.,12.0
1979-03-06 18:17:51.130 ,6,0,0.,12.0,0.,12.0,0.,12.0,0.,12.0
1979-03-06 18:18:03.130 ,5,0,0.,12.0,0.,12.0,0.,12.0,0.,12.0
1979-03-06 18:18:15.130 ,5,0,2.,12.0,0.,12.0,0.,12.0,0.,12.0
1979-03-06 18:18:27.130 ,4,0,0.,12.0,0.,12.0,0.,12.0,0.,12.0
1979-03-06 18:18:39.130 ,4,0,2.,12.0,0.,12.0,0.,12.0,0.,12.0
1979-03-06 18:18:51.130 ,3,0,0.,12.0,0.,12.0,0.,12.0,0.,12.0
1979-03-06 18:19:03.130 ,3,0,1.,12.0,0.,12.0,0.,12.0,0.,12.0
1979-03-06 18:19:15.130 ,2,0,0.,12.0,0.,12.0,0.,12.0,0.,12.0
1979-03-06 18:19:27.130 ,2,0,0.,12.0,0.,12.0,0.,12.0,0.,12.0
1979-03-06 18:19:39.130 ,1,0,1.,12.0,0.,12.0,0.,12.0,0.,12.0
1979-03-06 18:19:51.130 ,1,0,0.,12.0,0.,12.0,0.,12.0,0.,12.0
1979-03-06 18:20:03.130 ,0,0,0.,12.0,0.,12.0,0.,12.0,0.,12.0
1979-03-06 18:20:15.130 ,0,0,0.,12.0,0.,12.0,0.,12.0,0.,12.0
1979-03-06 18:20:27.130 ,0,0,1.,12.0,0.,12.0,0.,12.0,0.,12.0
1979-03-06 18:20:39.130 ,0,0,0.,12.0,0.,12.0,0.,12.0,0.,12.0
1979-03-06 18:20:51.130 ,1,0,0.,12.0,0.,12.0,0.,12.0,0.,12.0
1979-03-06 18:21:03.130 ,1,0,0.,12.0,0.,12.0,0.,12.0,0.,12.0
1979-03-06 18:21:15.130 ,2,0,0.,12.0,0.,12.0,0.,12.0,0.,12.0
1979-03-06 18:21:27.130 ,2,0,0.,12.0,0.,12.0,0.,12.0,0.,12.0
1979-03-06 18:21:39.130 ,3,0,0.,12.0,0.,12.0,0.,12.0,0.,12.0
1979-03-06 18:21:51.130 ,3,0,0.,12.0,0.,12.0,0.,12.0,0.,12.0
1979-03-06 18:22:03.130 ,4,0,1.,12.0,0.,12.0,0.,12.0,0.,12.0
1979-03-06 18:22:15.130 ,4,0,0.,12.0,0.,12.0,0.,12.0,0.,12.0
1979-03-06 18:22:27.130 ,5,0,0.,12.0,0.,12.0,0.,12.0,0.,12.0
1979-03-06 18:22:39.130 ,5,0,0.,12.0,1.,12.0,0.,12.0,0.,12.0
1979-03-06 18:22:51.130 ,6,0,0.,12.0,0.,12.0,0.,12.0,0.,12.0
1979-03-06 18:23:03.130 ,6,0,0.,12.0,0.,12.0,0.,12.0,0.,12.0
1979-03-06 18:23:15.130 ,7,0,0.,12.0,0.,12.0,0.,12.0,0.,12.0
1979-03-06 18:23:27.130 ,7,0,0.,12.0,0.,12.0,0.,12.0,0.,12.0
1979-03-06 18:23:39.130 ,7,0,0.,12.0,0.,12.0,0.,12.0,0.,12.0
1979-03-06 18:23:51.130 ,7,0,0.,12.0,0.,12.0,0.,12.0,0.,12.0
1979-03-06 18:24:03.130 ,6,0,0.,12.0,0.,12.0,0.,12.0,0.,12.0
1979-03-06 18:24:15.130 ,6,0,0.,12.0,0.,12.0,0.,12.0,0.,12.0
1979-03-06 18:24:27.130 ,5,0,0.,12.0,0.,12.0,0.,12.0,0.,12.0
1979-03-06 18:24:39.130 ,5,0,0.,12.0,0.,12.0,0.,12.0,0.,12.0
1979-03-06 18:24:51.130 ,4,0,0.,12.0,0.,12.0,0.,12.0,0.,12.0
1979-03-06 18:25:03.130 ,4,0,1.,12.0,0.,12.0,0.,12.0,0.,12.0
1979-03-06 18:25:15.130 ,3,0,0.,12.0,0.,12.0,0.,12.0,0.,12.0
1979-03-06 18:25:27.130 ,3,0,0.,12.0,0.,12.0,0.,12.0,0.,12.0
1979-03-06 18:25:39.130 ,2,0,0.,12.0,0.,12.0,0.,12.0,0.,12.0
1979-03-06 18:25:51.130 ,2,0,0.,12.0,0.,12.0,0.,12.0,0.,12.0
1979-03-06 18:26:03.130 ,1,0,0.,12.0,0.,12.0,0.,12.0,0.,12.0
1979-03-06 18:26:15.130 ,1,0,0.,12.0,0.,12.0,0.,12.0,0.,12.0
1979-03-06 18:26:27.130 ,0,0,0.,12.0,0.,12.0,0.,12.0,0.,12.0
1979-03-06 18:26:39.130 ,0,0,0.,12.0,0.,12.0,0.,12.0,0.,12.0
1979-03-06 18:26:51.130 ,0,0,0.,12.0,0.,12.0,0.,12.0,0.,12.0
1979-03-06 18:27:03.130 ,0,0,0.,12.0,0.,12.0,0.,12.0,0.,12.0
1979-03-06 18:27:15.130 ,1,0,0.,12.0,0.,12.0,0.,12.0,0.,12.0
1979-03-06 18:27:27.130 ,1,0,0.,12.0,0.,12.0,0.,12.0,0.,12.0
1979-03-06 18:27:39.130 ,2,0,0.,12.0,0.,12.0,0.,12.0,0.,12.0
1979-03-06 18:27:51.130 ,2,0,0.,12.0,0.,12.0,0.,12.0,0.,12.0
1979-03-06 18:28:03.130 ,3,0,0.,12.0,0.,12.0,0.,12.0,0.,12.0
1979-03-06 18:28:15.130 ,3,0,0.,12.0,0.,12.0,0.,12.0,0.,12.0
1979-03-06 18:28:27.130 ,4,0,0.,12.0,1.,12.0,0.,12.0,0.,12.0
1979-03-06 18:28:39.130 ,4,0,0.,12.0,0.,12.0,0.,12.0,0.,12.0
1979-03-06 18:28:51.130 ,5,0,0.,12.0,0.,12.0,0.,12.0,0.,12.0
1979-03-06 18:29:03.130 ,5,0,0.,12.0,0.,12.0,0.,12.0,0.,12.0
1979-03-06 18:29:15.130 ,6,0,0.,12.0,0.,12.0,0.,12.0,0.,12.0
1979-03-06 18:29:27.130 ,6,0,0.,12.0,0.,12.0,0.,12.0,0.,12.0
1979-03-06 18:29:39.130 ,7,0,0.,12.0,1.,12.0,0.,12.0,0.,12.0
1979-03-06 18:29:51.130 ,7,0,0.,12.0,0.,12.0,0.,12.0,0.,12.0
1979-03-06 18:30:03.130 ,7,0,0.,12.0,0.,12.0,0.,12.0,0.,12.0
1979-03-06 18:30:15.130 ,7,0,0.,12.0,0.,12.0,0.,12.0,0.,12.0
1979-03-06 18:30:51.130 ,5,0,0.,12.0,0.,12.0,0.,12.0,0.,12.0
1979-03-06 18:31:03.130 ,5,0,0.,12.0,0.,12.0,0.,12.0,0.,12.0
1979-03-06 18:31:15.130 ,4,0,0.,12.0,0.,12.0,0.,12.0,0.,12.0
1979-03-06 18:31:27.130 ,4,0,0.,12.0,0.,12.0,0.,12.0,0.,12.0
1979-03-06 18:31:39.130 ,3,0,0.,12.0,0.,12.0,0.,12.0,0.,12.0
1979-03-06 18:31:51.130 ,3,0,1.,12.0,0.,12.0,0.,12.0,0.,12.0
1979-03-06 18:32:03.130 ,2,0,0.,12.0,0.,12.0,0.,12.0,0.,12.0
1979-03-06 18:32:15.130 ,2,0,0.,12.0,0.,12.0,0.,12.0,0.,12.0
1979-03-06 18:32:27.130 ,1,0,0.,12.0,0.,12.0,0.,12.0,0.,12.0
1979-03-06 18:32:39.130 ,1,0,0.,12.0,0.,12.0,0.,12.0,0.,12.0
1979-03-06 18:32:51.130 ,0,0,0.,12.0,0.,12.0,0.,12.0,0.,12.0
1979-03-06 18:33:03.130 ,0,0,0.,12.0,0.,12.0,0.,12.0,0.,12.0
1979-03-06 18:33:15.130 ,0,0,0.,12.0,0.,12.0,0.,12.0,0.,12.0
1979-03-06 18:33:27.130 ,0,0,0.,12.0,0.,12.0,0.,12.0,0.,12.0
1979-03-06 18:33:39.130 ,1,0,0.,12.0,0.,12.0,0.,12.0,0.,12.0
1979-03-06 18:33:51.130 ,1,0,0.,12.0,0.,12.0,0.,12.0,0.,12.0
1979-03-06 18:34:03.130 ,2,0,0.,12.0,0.,12.0,0.,12.0,0.,12.0
1979-03-06 18:34:15.130 ,2,0,0.,12.0,0.,12.0,0.,12.0,0.,12.0
1979-03-06 18:34:27.130 ,3,0,0.,12.0,0.,12.0,0.,12.0,0.,12.0
1979-03-06 18:34:39.130 ,3,0,0.,12.0,0.,12.0,0.,12.0,0.,12.0
1979-03-06 18:34:51.130 ,4,0,0.,12.0,0.,12.0,0.,12.0,0.,12.0
1979-03-06 18:35:03.130 ,4,0,0.,12.0,0.,12.0,0.,12.0,0.,12.0
1979-03-06 18:35:15.130 ,5,0,0.,12.0,0.,12.0,0.,12.0,0.,12.0
1979-03-06 18:35:27.130 ,5,0,0.,12.0,0.,12.0,0.,12.0,0.,12.0
1979-03-06 18:35:39.130 ,6,0,0.,12.0,0.,12.0,0.,12.0,0.,12.0
1979-03-06 18:35:51.130 ,6,0,0.,12.0,0.,12.0,0.,12.0,0.,12.0
1979-03-06 18:36:03.130 ,7,0,0.,12.0,0.,12.0,0.,12.0,0.,12.0
1979-03-06 18:36:15.130 ,7,0,0.,12.0,0.,12.0,0.,12.0,0.,12.0
1979-03-06 18:36:27.130 ,7,0,0.,12.0,0.,12.0,0.,12.0,0.,12.0
1979-03-06 18:36:39.130 ,7,0,0.,12.0,0.,12.0,0.,12.0,0.,12.0
1979-03-06 18:36:51.130 ,6,0,0.,12.0,0.,12.0,0.,12.0,0.,12.0
1979-03-06 18:37:03.130 ,6,0,0.,12.0,0.,12.0,0.,12.0,0.,12.0
1979-03-06 18:37:15.130 ,5,0,0.,12.0,0.,12.0,0.,12.0,0.,12.0
1979-03-06 18:37:27.130 ,5,0,0.,12.0,0.,12.0,0.,12.0,0.,12.0
1979-03-06 18:37:39.130 ,4,0,1.,12.0,0.,12.0,0.,12.0,0.,12.0
1979-03-06 18:37:51.130 ,4,0,0.,12.0,0.,12.0,0.,12.0,0.,12.0
1979-03-06 18:38:03.130 ,3,0,0.,12.0,0.,12.0,0.,12.0,0.,12.0
1979-03-06 18:38:15.130 ,3,0,0.,12.0,0.,12.0,0.,12.0,0.,12.0
1979-03-06 18:38:27.130 ,0,1,0.,12.0,0.,12.0,0.,12.0,0.,12.0
1979-03-06 18:38:39.130 ,0,1,0.,12.0,0.,12.0,0.,12.0,0.,12.0
1979-03-06 18:38:51.130 ,3,1,0.,12.0,0.,12.0,0.,12.0,0.,12.0
1979-03-06 18:39:03.130 ,3,1,0.,12.0,0.,12.0,0.,12.0,0.,12.0
1979-03-06 18:39:15.130 ,7,1,0.,12.0,0.,12.0,0.,12.0,0.,12.0
1979-03-06 18:39:27.130 ,7,1,0.,12.0,0.,12.0,0.,12.0,0.,12.0
1979-03-06 18:39:39.130 ,4,1,0.,12.0,0.,12.0,0.,12.0,0.,12.0
1979-03-06 18:39:51.130 ,4,1,1.,12.0,0.,12.0,0.,12.0,0.,12.0
1979-03-06 18:40:03.130 ,0,1,0.,12.0,0.,12.0,0.,12.0,0.,12.0
1979-03-06 18:40:15.130 ,0,1,0.,12.0,0.,12.0,0.,12.0,0.,12.0
1979-03-06 18:40:27.130 ,3,1,0.,12.0,0.,12.0,0.,12.0,0.,12.0
1979-03-06 18:40:39.130 ,3,1,0.,12.0,0.,12.0,0.,12.0,0.,12.0
1979-03-06 18:40:51.130 ,7,1,0.,12.0,0.,12.0,0.,12.0,0.,12.0
1979-03-06 18:41:03.130 ,7,1,0.,12.0,0.,12.0,0.,12.0,0.,12.0
1979-03-06 18:41:15.130 ,4,1,0.,12.0,0.,12.0,0.,12.0,0.,12.0
1979-03-06 18:41:27.130 ,4,1,0.,12.0,0.,12.0,0.,12.0,0.,12.0
1979-03-06 18:41:39.130 ,0,1,0.,12.0,0.,12.0,0.,12.0,0.,12.0
1979-03-06 18:41:51.130 ,0,1,0.,12.0,0.,12.0,0.,12.0,0.,12.0
1979-03-06 18:42:03.130 ,3,1,0.,12.0,0.,12.0,0.,12.0,0.,12.0
1979-03-06 18:42:15.130 ,3,1,0.,12.0,0.,12.0,0.,12.0,0.,12.0
1979-03-06 18:42:27.130 ,7,1,0.,12.0,0.,12.0,0.,12.0,0.,12.0
1979-03-06 18:42:39.130 ,7,1,0.,12.0,0.,12.0,0.,12.0,0.,12.0
1979-03-06 18:42:51.130 ,4,1,0.,12.0,0.,12.0,0.,12.0,0.,12.0
1979-03-06 18:43:03.130 ,4,1,0.,12.0,0.,12.0,0.,12.0,0.,12.0
1979-03-06 18:43:15.130 ,0,1,0.,12.0,0.,12.0,0.,12.0,0.,12.0
1979-03-06 18:43:27.130 ,0,1,0.,12.0,0.,12.0,0.,12.0,0.,12.0
1979-03-06 18:43:39.130 ,3,1,0.,12.0,0.,12.0,0.,12.0,0.,12.0
1979-03-06 18:43:51.130 ,3,1,0.,12.0,0.,12.0,0.,12.0,0.,12.0
1979-03-06 18:44:03.130 ,7,1,0.,12.0,0.,12.0,0.,12.0,0.,12.0
1979-03-06 18:44:15.130 ,7,1,0.,12.0,0.,12.0,0.,12.0,0.,12.0
1979-03-06 18:44:27.130 ,4,1,0.,12.0,0.,12.0,0.,12.0,0.,12.0
1979-03-06 18:44:39.130 ,4,1,0.,12.0,0.,12.0,0.,12.0,0.,12.0
1979-03-06 18:44:51.130 ,0,1,0.,12.0,0.,12.0,0.,12.0,0.,12.0
1979-03-06 18:45:03.130 ,0,1,0.,12.0,0.,12.0,0.,12.0,0.,12.0
1979-03-06 18:45:15.130 ,3,1,0.,12.0,0.,12.0,0.,12.0,0.,12.0
1979-03-06 18:45:27.130 ,3,1,0.,12.0,0.,12.0,0.,12.0,0.,12.0
1979-03-06 18:45:39.130 ,7,1,0.,12.0,0.,12.0,0.,12.0,0.,12.0
1979-03-06 18:45:51.130 ,7,1,0.,12.0,0.,12.0,0.,12.0,0.,12.0
1979-03-06 18:46:03.130 ,4,1,0.,12.0,0.,12.0,0.,12.0,0.,12.0
1979-03-06 18:46:15.130 ,4,1,0.,12.0,0.,12.0,0.,12.0,0.,12.0
1979-03-06 18:46:27.130 ,0,1,0.,12.0,0.,12.0,0.,12.0,0.,12.0
1979-03-06 18:46:39.130 ,0,1,0.,12.0,0.,12.0,0.,12.0,0.,12.0
1979-03-06 18:46:51.130 ,3,1,0.,12.0,0.,12.0,0.,12.0,0.,12.0
1979-03-06 18:47:03.130 ,3,1,0.,12.0,0.,12.0,0.,12.0,0.,12.0
1979-03-06 18:47:15.130 ,7,1,0.,12.0,0.,12.0,0.,12.0,0.,12.0
1979-03-06 18:47:27.130 ,7,1,0.,12.0,0.,12.0,0.,12.0,0.,12.0
1979-03-06 18:47:39.130 ,4,1,0.,12.0,0.,12.0,0.,12.0,0.,12.0
1979-03-06 18:47:51.130 ,4,1,0.,12.0,0.,12.0,0.,12.0,0.,12.0
1979-03-06 18:48:03.130 ,0,1,0.,12.0,0.,12.0,0.,12.0,0.,12.0
1979-03-06 18:48:15.130 ,0,1,0.,12.0,0.,12.0,0.,12.0,0.,12.0
1979-03-06 18:48:27.130 ,3,1,0.,12.0,0.,12.0,0.,12.0,0.,12.0
1979-03-06 18:48:39.130 ,3,1,0.,12.0,0.,12.0,0.,12.0,0.,12.0
1979-03-06 18:48:51.140 ,7,1,0.,12.0,0.,12.0,0.,12.0,0.,12.0
1979-03-06 18:49:03.140 ,7,1,0.,12.0,0.,12.0,0.,12.0,0.,12.0
1979-03-06 18:49:15.140 ,4,1,0.,12.0,0.,12.0,0.,12.0,0.,12.0
1979-03-06 18:49:27.140 ,4,1,0.,12.0,0.,12.0,0.,12.0,0.,12.0
1979-03-06 18:49:39.140 ,0,1,0.,12.0,0.,12.0,0.,12.0,0.,12.0
1979-03-06 18:49:51.140 ,0,1,0.,12.0,0.,12.0,0.,12.0,0.,12.0
1979-03-06 18:50:03.140 ,3,1,0.,12.0,0.,12.0,0.,12.0,0.,12.0
1979-03-06 18:50:15.140 ,3,1,0.,12.0,0.,12.0,0.,12.0,0.,12.0
1979-03-06 18:50:27.140 ,7,1,0.,12.0,0.,12.0,0.,12.0,0.,12.0
1979-03-06 18:50:39.140 ,7,1,0.,12.0,0.,12.0,0.,12.0,0.,12.0
1979-03-06 18:50:51.140 ,4,1,0.,12.0,0.,12.0,0.,12.0,0.,12.0
1979-03-06 18:51:03.140 ,4,1,0.,12.0,0.,12.0,0.,12.0,0.,12.0
1979-03-06 18:51:15.140 ,0,1,0.,12.0,0.,12.0,0.,12.0,0.,12.0
1979-03-06 18:51:27.140 ,0,1,0.,12.0,0.,12.0,0.,12.0,0.,12.0
1979-03-06 18:51:39.140 ,3,1,0.,12.0,0.,12.0,0.,12.0,0.,12.0
1979-03-06 18:51:51.140 ,3,1,0.,12.0,0.,12.0,0.,12.0,0.,12.0
1979-03-06 18:52:03.140 ,7,1,0.,12.0,0.,12.0,0.,12.0,0.,12.0
1979-03-06 18:52:15.140 ,7,1,0.,12.0,0.,12.0,0.,12.0,0.,12.0
1979-03-06 18:52:27.140 ,4,1,0.,12.0,0.,12.0,0.,12.0,0.,12.0
1979-03-06 18:52:39.140 ,4,1,0.,12.0,0.,12.0,0.,12.0,0.,12.0
1979-03-06 18:52:51.140 ,0,1,0.,12.0,0.,12.0,0.,12.0,0.,12.0
1979-03-06 18:53:03.140 ,0,1,0.,12.0,0.,12.0,0.,12.0,0.,12.0
1979-03-06 18:53:15.140 ,3,1,0.,12.0,0.,12.0,0.,12.0,0.,12.0
1979-03-06 18:53:27.140 ,3,1,0.,12.0,0.,12.0,0.,12.0,0.,12.0
1979-03-06 18:53:39.140 ,7,1,0.,12.0,0.,12.0,0.,12.0,0.,12.0
1979-03-06 18:53:51.140 ,7,1,0.,12.0,0.,12.0,0.,12.0,0.,12.0
1979-03-06 18:54:03.140 ,0,0,0.,12.0,0.,12.0,0.,12.0,0.,12.0
1979-03-06 18:54:15.140 ,0,0,,0,,0,,0,,0
1979-03-06 18:54:33.140 ,0,0,0.,12.0,0.,12.0,0.,12.0,0.,12.0
1979-03-06 18:54:45.140 ,0,0,0.,12.0,0.,12.0,0.,12.0,0.,12.0
1979-03-06 18:54:51.140 ,3,1,0.,12.0,0.,12.0,0.,12.0,0.,12.0
1979-03-06 18:55:03.140 ,3,1,0.,12.0,0.,12.0,0.,12.0,0.,12.0
1979-03-06 18:55:15.140 ,7,1,0.,12.0,0.,12.0,0.,12.0,0.,12.0
1979-03-06 18:55:27.140 ,7,1,0.,12.0,0.,12.0,0.,12.0,0.,12.0
1979-03-06 18:55:39.140 ,4,1,0.,12.0,0.,12.0,0.,12.0,0.,12.0
1979-03-06 18:55:51.140 ,4,1,0.,12.0,0.,12.0,0.,12.0,0.,12.0
1979-03-06 18:56:03.140 ,0,1,0.,12.0,0.,12.0,0.,12.0,0.,12.0
1979-03-06 18:56:15.140 ,0,1,0.,12.0,0.,12.0,0.,12.0,0.,12.0
1979-03-06 18:56:27.140 ,3,1,0.,12.0,0.,12.0,0.,12.0,0.,12.0
1979-03-06 18:56:39.140 ,3,1,0.,12.0,0.,12.0,0.,12.0,0.,12.0
1979-03-06 18:56:51.140 ,7,1,0.,12.0,0.,12.0,0.,12.0,0.,12.0
1979-03-06 18:57:03.140 ,7,1,0.,12.0,0.,12.0,0.,12.0,0.,12.0
1979-03-06 18:57:15.140 ,4,1,0.,12.0,0.,12.0,0.,12.0,0.,12.0
1979-03-06 18:57:27.140 ,4,1,0.,12.0,0.,12.0,0.,12.0,0.,12.0
1979-03-06 18:57:39.140 ,0,1,0.,12.0,0.,12.0,0.,12.0,0.,12.0
1979-03-06 18:57:51.140 ,0,1,0.,12.0,0.,12.0,0.,12.0,0.,12.0
1979-03-06 18:58:03.140 ,3,1,0.,12.0,0.,12.0,0.,12.0,0.,12.0
1979-03-06 18:58:15.140 ,3,1,0.,12.0,0.,12.0,0.,12.0,0.,12.0
1979-03-06 18:58:27.140 ,7,1,0.,12.0,0.,12.0,0.,12.0,0.,12.0
1979-03-06 18:58:39.140 ,7,1,0.,12.0,0.,12.0,0.,12.0,0.,12.0
1979-03-06 18:58:51.140 ,4,1,0.,12.0,0.,12.0,0.,12.0,0.,12.0
1979-03-06 18:59:03.140 ,4,1,0.,12.0,0.,12.0,0.,12.0,0.,12.0
1979-03-06 18:59:15.140 ,0,1,0.,12.0,0.,12.0,0.,12.0,0.,12.0
1979-03-06 18:59:27.140 ,0,1,0.,12.0,0.,12.0,0.,12.0,0.,12.0
1979-03-06 18:59:39.140 ,3,1,0.,12.0,1.,12.0,0.,12.0,0.,12.0
1979-03-06 18:59:51.140 ,3,1,0.,12.0,0.,12.0,0.,12.0,0.,12.0
1979-03-06 19:00:03.140 ,7,1,0.,12.0,0.,12.0,0.,12.0,0.,12.0
1979-03-06 19:00:15.140 ,7,1,0.,12.0,0.,12.0,0.,12.0,0.,12.0
1979-03-06 19:00:27.140 ,4,1,0.,12.0,0.,12.0,0.,12.0,0.,12.0
1979-03-06 19:00:39.140 ,4,1,0.,12.0,0.,12.0,0.,12.0,0.,12.0
1979-03-06 19:00:51.140 ,0,1,0.,12.0,0.,12.0,0.,12.0,0.,12.0
1979-03-06 19:01:03.140 ,0,1,0.,12.0,0.,12.0,0.,12.0,0.,12.0
1979-03-06 19:01:15.140 ,3,1,0.,12.0,0.,12.0,0.,12.0,0.,12.0
1979-03-06 19:01:27.140 ,3,1,0.,12.0,0.,12.0,0.,12.0,0.,12.0
1979-03-06 19:01:39.140 ,7,1,0.,12.0,0.,12.0,0.,12.0,0.,12.0
1979-03-06 19:01:51.140 ,7,1,0.,12.0,0.,12.0,0.,12.0,0.,12.0
1979-03-06 19:02:03.140 ,4,1,0.,12.0,0.,12.0,0.,12.0,0.,12.0
1979-03-06 19:02:15.140 ,4,1,0.,12.0,0.,12.0,0.,12.0,0.,12.0
1979-03-06 19:02:27.140 ,0,1,0.,12.0,0.,12.0,0.,12.0,0.,12.0
1979-03-06 19:02:39.140 ,0,1,0.,12.0,0.,12.0,0.,12.0,0.,12.0
1979-03-06 19:02:51.140 ,3,1,0.,12.0,0.,12.0,0.,12.0,0.,12.0
1979-03-06 19:03:03.140 ,3,1,0.,12.0,0.,12.0,0.,12.0,0.,12.0
1979-03-06 19:03:15.140 ,7,1,0.,12.0,0.,12.0,0.,12.0,0.,12.0
1979-03-06 19:03:27.140 ,7,1,0.,12.0,0.,12.0,0.,12.0,0.,12.0
1979-03-06 19:03:39.140 ,4,1,0.,12.0,0.,12.0,0.,12.0,0.,12.0
1979-03-06 19:03:51.140 ,4,1,0.,12.0,0.,12.0,0.,12.0,0.,12.0
1979-03-06 19:04:03.140 ,0,1,0.,12.0,0.,12.0,0.,12.0,0.,12.0
1979-03-06 19:04:15.140 ,0,1,0.,12.0,0.,12.0,0.,12.0,0.,12.0
1979-03-06 19:04:27.140 ,3,1,0.,12.0,0.,12.0,0.,12.0,0.,12.0
1979-03-06 19:04:39.140 ,3,1,0.,12.0,0.,12.0,0.,12.0,0.,12.0
1979-03-06 19:04:51.140 ,7,1,0.,12.0,0.,12.0,0.,12.0,0.,12.0
1979-03-06 19:05:03.140 ,7,1,0.,12.0,0.,12.0,0.,12.0,0.,12.0
1979-03-06 19:05:15.140 ,4,1,0.,12.0,0.,12.0,0.,12.0,0.,12.0
1979-03-06 19:05:27.140 ,4,1,0.,12.0,0.,12.0,0.,12.0,0.,12.0
1979-03-06 19:05:39.140 ,0,1,0.,12.0,0.,12.0,0.,12.0,0.,12.0
1979-03-06 19:05:51.140 ,0,1,0.,12.0,0.,12.0,0.,12.0,0.,12.0
1979-03-06 19:06:03.140 ,3,1,0.,12.0,0.,12.0,0.,12.0,0.,12.0
1979-03-06 19:06:15.140 ,3,1,0.,12.0,0.,12.0,0.,12.0,0.,12.0
1979-03-06 19:06:27.140 ,7,1,0.,12.0,0.,12.0,0.,12.0,0.,12.0
1979-03-06 19:06:39.140 ,7,1,0.,12.0,0.,12.0,0.,12.0,0.,12.0
1979-03-06 19:06:51.140 ,4,1,0.,12.0,0.,12.0,0.,12.0,0.,12.0
1979-03-06 19:07:03.140 ,4,1,0.,12.0,0.,12.0,0.,12.0,0.,12.0
1979-03-06 19:07:15.140 ,0,1,0.,12.0,0.,12.0,0.,12.0,0.,12.0
1979-03-06 19:07:27.140 ,0,1,0.,12.0,0.,12.0,0.,12.0,0.,12.0
1979-03-06 19:07:39.140 ,3,1,0.,12.0,0.,12.0,0.,12.0,0.,12.0
1979-03-06 19:07:51.140 ,3,1,0.,12.0,0.,12.0,0.,12.0,0.,12.0
1979-03-06 19:08:03.140 ,7,1,0.,12.0,0.,12.0,0.,12.0,0.,12.0
1979-03-06 19:08:15.140 ,7,1,1.,12.0,0.,12.0,0.,12.0,0.,12.0
1979-03-06 19:08:27.140 ,4,1,0.,12.0,0.,12.0,0.,12.0,0.,12.0
1979-03-06 19:08:39.140 ,4,1,0.,12.0,0.,12.0,0.,12.0,0.,12.0
1979-03-06 19:08:51.140 ,0,0,0.,12.0,0.,12.0,0.,12.0,0.,12.0
1979-03-06 19:09:03.140 ,0,0,0.,12.0,0.,12.0,0.,12.0,0.,12.0
1979-03-06 19:09:15.140 ,0,0,0.,12.0,0.,12.0,0.,12.0,0.,12.0
1979-03-06 19:09:27.140 ,0,0,0.,12.0,0.,12.0,0.,12.0,0.,12.0
1979-03-06 19:09:39.140 ,7,1,0.,12.0,0.,12.0,0.,12.0,0.,12.0
1979-03-06 19:09:51.140 ,7,1,0.,12.0,0.,12.0,0.,12.0,0.,12.0
1979-03-06 19:10:03.140 ,4,1,0.,12.0,0.,12.0,0.,12.0,0.,12.0
1979-03-06 19:10:15.140 ,4,1,0.,12.0,0.,12.0,0.,12.0,0.,12.0
1979-03-06 19:10:27.140 ,0,1,0.,12.0,0.,12.0,0.,12.0,0.,12.0
1979-03-06 19:10:39.140 ,0,1,0.,12.0,0.,12.0,0.,12.0,0.,12.0
1979-03-06 19:10:51.140 ,3,1,0.,12.0,0.,12.0,0.,12.0,0.,12.0
1979-03-06 19:11:03.140 ,3,1,0.,12.0,0.,12.0,0.,12.0,0.,12.0
1979-03-06 19:11:15.140 ,7,1,0.,12.0,0.,12.0,0.,12.0,0.,12.0
1979-03-06 19:11:27.140 ,7,1,0.,12.0,0.,12.0,0.,12.0,0.,12.0
1979-03-06 19:11:39.140 ,4,1,0.,12.0,0.,12.0,0.,12.0,0.,12.0
1979-03-06 19:11:51.140 ,4,1,0.,12.0,0.,12.0,0.,12.0,0.,12.0
1979-03-06 19:12:03.140 ,0,1,0.,12.0,0.,12.0,0.,12.0,0.,12.0
1979-03-06 19:12:15.140 ,0,1,0.,12.0,0.,12.0,0.,12.0,0.,12.0
1979-03-06 19:12:27.140 ,3,1,0.,12.0,0.,12.0,0.,12.0,0.,12.0
1979-03-06 19:12:39.140 ,3,1,0.,12.0,0.,12.0,0.,12.0,0.,12.0
1979-03-06 19:12:51.140 ,7,1,0.,12.0,0.,12.0,0.,12.0,0.,12.0
1979-03-06 19:13:03.140 ,7,1,0.,12.0,0.,12.0,0.,12.0,0.,12.0
1979-03-06 19:13:15.140 ,4,1,0.,12.0,0.,12.0,0.,12.0,0.,12.0
1979-03-06 19:13:27.140 ,4,1,0.,12.0,0.,12.0,0.,12.0,0.,12.0
1979-03-06 19:13:39.140 ,0,1,0.,12.0,0.,12.0,0.,12.0,0.,12.0
1979-03-06 19:13:51.140 ,0,1,0.,12.0,0.,12.0,0.,12.0,0.,12.0
1979-03-06 19:14:03.140 ,3,1,0.,12.0,0.,12.0,0.,12.0,0.,12.0
1979-03-06 19:14:15.140 ,3,1,0.,12.0,0.,12.0,0.,12.0,0.,12.0
1979-03-06 19:14:27.140 ,7,1,0.,12.0,0.,12.0,0.,12.0,0.,12.0
1979-03-06 19:14:39.140 ,7,1,0.,12.0,0.,12.0,0.,12.0,0.,12.0
1979-03-06 19:14:51.140 ,4,1,0.,12.0,0.,12.0,0.,12.0,0.,12.0
1979-03-06 19:15:03.140 ,4,1,0.,12.0,0.,12.0,0.,12.0,0.,12.0
1979-03-06 19:15:15.140 ,0,1,0.,12.0,0.,12.0,0.,12.0,0.,12.0
1979-03-06 19:15:27.140 ,0,1,0.,12.0,0.,12.0,0.,12.0,0.,12.0
1979-03-06 19:15:39.140 ,3,1,0.,12.0,0.,12.0,0.,12.0,0.,12.0
1979-03-06 19:15:51.140 ,3,1,0.,12.0,0.,12.0,0.,12.0,0.,12.0
1979-03-06 19:16:03.140 ,7,1,0.,12.0,0.,12.0,0.,12.0,1.,12.0
1979-03-06 19:16:15.140 ,7,1,0.,12.0,0.,12.0,0.,12.0,0.,12.0
1979-03-06 19:16:27.140 ,4,1,0.,12.0,0.,12.0,0.,12.0,0.,12.0
1979-03-06 19:16:39.140 ,4,1,0.,12.0,0.,12.0,0.,12.0,0.,12.0
1979-03-06 19:16:51.140 ,0,1,0.,12.0,0.,12.0,0.,12.0,0.,12.0
1979-03-06 19:17:03.140 ,0,1,0.,12.0,0.,12.0,0.,12.0,0.,12.0
1979-03-06 19:17:15.140 ,3,1,0.,12.0,0.,12.0,0.,12.0,0.,12.0
1979-03-06 19:17:27.140 ,3,1,0.,12.0,0.,12.0,0.,12.0,0.,12.0
1979-03-06 19:17:39.140 ,7,1,0.,12.0,0.,12.0,0.,12.0,0.,12.0
1979-03-06 19:17:51.140 ,7,1,0.,12.0,0.,12.0,0.,12.0,0.,12.0